User: anonymous
Location: Unspecified
(0.0000°N, 0.0000°E)
Time: 10:20:42
(UTC+00:00)
Language:

CANX 3A (UNIBRITE) - Orbit

View from above orbital plane
View from above orbital plane
View from above satellite
View from above satellite

Ground track
Ground track

The orbit data is extracted from the following two-line orbital elements,

1 39092U 13009G   14292.47771233  .00000326  00000-0  13108-3 0  5126
2 39092 098.6134 126.6593 0008409 302.5712 057.4660 14.34615589 86142
Epoch (UTC): 19 October 2014 11:27:54
Eccentricity: 0.0008409
inclination: 98.6134°
perigee height: 770 km
apogee height: 782 km
right ascension of ascending node: 126.6593°
argument of perigee: 302.5712°
revolutions per day: 14.34615589
mean anomaly at epoch: 57.4660°
orbit number at epoch: 8614

The dashed part of the orbit path shows where the satellite is in the earth's shadow,  

DLR